Location: ?
(35.3436°N, 139.3168°E)
Time: 10:42:04
(UTC+00:00)

X-37B - Pass Details

Date: 31 January 2021
Orbit: 383 x 391 km, 45.0° (Epoch: 10 February)

Event Time Altitude Azimuth Distance (km) Brightness Sun altitude
Rises 08:48:48 0° 305° (NW) 2,271 5.1 -8.4°
Reaches altitude 10° 08:50:57 10° 314° (NW) 1,416 3.9 -8.9°
Maximum altitude 08:53:58 39° 25° (NNE) 601 1.2 -9.5°
Enters shadow 08:56:25 14° 92° (E) 1,204 2.5 -9.9°
